Leadville, CO

5:10 PM MDT on September 30, 2016 (GMT -0600)
Lake County

Weather History for KLXV - December, 2012

Change the Weather History Date:

Tuesday, December 18, 2012

  Actual Average Record
Temperature  
Mean Temperature 21 °F -  
Max Temperature 27 °F 29 °F 45 °F (2013)
Min Temperature 14 °F 4 °F -13 °F (1996)
Degree Days  
Heating Degree Days 44 49  
Month to date heating degree days 806 864  
Since 1 July heating degree days 3826 4269  
Cooling Degree Days 0 0  
Month to date cooling degree days 0 0  
Year to date cooling degree days 0 0  
Moisture  
Dew Point 12 °F    
Average Humidity 65    
Maximum Humidity 88    
Minimum Humidity 42    
Precipitation  
Precipitation 0.01 in 0.03 in 0.24 in (2008)
Month to date precipitation 0.60 0.45  
Year to date precipitation 10.90 12.15  
Sea Level Pressure  
Sea Level Pressure 29.57 in    
Wind  
Wind Speed 10 mph (WSW)    
Max Wind Speed 22 mph    
Max Gust Speed 29 mph    
Visibility 8 miles    
Events Snow    
T = Trace of Precipitation, MM = Missing Value Source: NWS Daily Summary

Daily Weather History Graph

Daily Weather History Graph

Search for Another Location

Airport or City:

Trip Planner

Search our weather history database for the weather conditions in past years. The results will help you decide how hot, cold, wet, or windy it might be!

Date:

Astronomy

Dec. 18, 2012 Rise Set
Actual Time 7:19 AM MST 4:44 PM MST
Civil Twilight 6:49 AM MST 5:14 PM MST
Nautical Twilight 6:16 AM MST 5:48 PM MST
Astronomical Twilight 5:43 AM MST 6:20 PM MST
Moon 11:03 AM MST (12/18) 11:11 PM MST (12/18)
Length of Visible Light 10h 24m
Length of Day
9h 24m
Waxing Crescent, 35% of the Moon is Illuminated
Dec 18
Waxing Crescent
Dec 19
First Quarter
Dec 28
Full
Jan 4
Last Quarter
Jan 11
New

Hourly Weather History & Observations

Time (MST) Temp. Windchill Dew Point Humidity Pressure Visibility Wind Dir Wind Speed Gust Speed Precip Events Conditions
12:53 AM 19.9 °F 9.3 °F 14.0 °F 78% 29.62 in 5.0 mi North 9.2 mph - 0.00 in Snow Light Snow
1:51 AM 19.4 °F 8.6 °F 15.8 °F 86% 29.71 in 3.0 mi NNE 9.2 mph - 0.00 in Snow Light Snow
1:53 AM 19.0 °F 11.1 °F 15.1 °F 85% 29.64 in 3.0 mi Variable 5.8 mph - 0.00 in Snow Light Snow
2:03 AM 19.4 °F 9.5 °F 14.0 °F 80% 29.72 in 5.0 mi NW 8.1 mph - 0.00 in Snow Light Snow
2:53 AM 19.9 °F 9.3 °F 12.9 °F 74% 29.62 in 7.0 mi NW 9.2 mph - 0.01 in Snow Light Snow
3:53 AM 19.9 °F 10.1 °F 12.9 °F 74% 29.62 in 9.0 mi North 8.1 mph 19.6 mph 0.00 in   Overcast
4:53 AM 19.9 °F 9.3 °F 12.9 °F 74% 29.62 in 9.0 mi NNW 9.2 mph - 0.00 in Snow Light Snow
5:53 AM 19.9 °F 7.3 °F 12.0 °F 71% 29.63 in 10.0 mi North 12.7 mph - 0.00 in   Overcast
6:53 AM 19.9 °F 7.3 °F 12.0 °F 71% 29.65 in 10.0 mi North 12.7 mph 19.6 mph N/A   Overcast
7:53 AM 19.9 °F 9.3 °F 12.9 °F 74% 29.64 in 10.0 mi NNW 9.2 mph 18.4 mph N/A   Overcast
8:53 AM 19.9 °F 8.6 °F 12.9 °F 74% 29.65 in 10.0 mi North 10.4 mph - N/A   Overcast
9:53 AM 25.0 °F 18.1 °F 10.0 °F 53% 29.62 in 10.0 mi NW 5.8 mph - N/A   Mostly Cloudy
10:53 AM 25.0 °F 12.2 °F 8.1 °F 49% 29.60 in 10.0 mi SSW 16.1 mph 23.0 mph N/A   Partly Cloudy
11:53 AM 26.1 °F 15.6 °F 7.0 °F 44% 29.56 in 10.0 mi SSW 11.5 mph 18.4 mph N/A   Clear
12:53 PM 27.0 °F 16.1 °F 10.0 °F 49% 29.52 in 10.0 mi South 12.7 mph 16.1 mph N/A   Scattered Clouds
1:53 PM 25.0 °F 12.2 °F 10.9 °F 55% 29.53 in 10.0 mi South 16.1 mph 23.0 mph N/A   Overcast
2:53 PM 24.1 °F 13.7 °F 10.0 °F 55% 29.52 in 10.0 mi SSE 10.4 mph 18.4 mph N/A   Overcast
3:53 PM 24.1 °F 9.8 °F 10.0 °F 55% 29.49 in 10.0 mi SSE 19.6 mph - N/A   Overcast
4:53 PM 23.0 °F 9.6 °F 9.0 °F 55% 29.49 in 10.0 mi SSE 16.1 mph 25.3 mph N/A   Overcast
5:53 PM 23.0 °F 9.6 °F 8.1 °F 53% 29.46 in 10.0 mi SSE 16.1 mph 26.5 mph N/A   Overcast
6:53 PM 19.0 °F 13.9 °F 10.9 °F 71% 29.52 in 10.0 mi SW 3.5 mph - N/A   Overcast
7:53 PM 18.0 °F - 12.0 °F 78% 29.53 in 10.0 mi Calm Calm - N/A   Overcast
8:35 PM 19.4 °F 7.2 °F 15.8 °F 86% 29.57 in 2.5 mi SSE 11.5 mph - 0.00 in Snow Light Snow
8:48 PM 19.4 °F 7.9 °F 15.8 °F 86% 29.57 in 1.8 mi SSE 10.4 mph - 0.00 in Snow Light Snow
8:53 PM 19.0 °F 6.1 °F 15.1 °F 85% 29.49 in 2.0 mi South 12.7 mph - 0.00 in Snow Light Snow
9:02 PM 17.6 °F 4.3 °F 15.8 °F 93% 29.56 in 3.0 mi South 12.7 mph - 0.00 in Snow Light Snow
9:53 PM 15.1 °F - 12.9 °F 91% 29.48 in 9.0 mi Calm Calm - 0.00 in   Overcast
10:01 PM 15.8 °F - 12.2 °F 86% 29.55 in 10.0 mi Calm Calm - N/A   Overcast
10:13 PM 15.8 °F 8.6 °F 12.2 °F 86% 29.55 in 10.0 mi North 4.6 mph - N/A   Overcast
10:42 PM 15.8 °F - 12.2 °F 86% 29.54 in 8.0 mi Calm Calm - 0.00 in Snow Light Snow
10:53 PM 15.1 °F 9.4 °F 12.9 °F 91% 29.45 in 9.0 mi NE 3.5 mph - 0.00 in   Overcast
11:53 PM 16.0 °F - 14.0 °F 92% 29.42 in 9.0 mi Calm Calm - N/A   Overcast